User: anonymous   Login
Location: 相模原市立博物館
(35.5593°N, 139.3931°E)
Time: 13:44:17
(UTC+09:00)
Language:

NOAA 19 - Orbit

View from above orbital plane
View from above orbital plane
View from above satellite
View from above satellite

Ground track
Ground track

The orbit data is extracted from the following two-line orbital elements,

1 33591U 09005A   22024.77027039  .00000034  00000-0  43647-4 0  9995
2 33591  99.1660  55.7640 0013255 229.1039 130.8984 14.12524380668163
Epoch (UTC): 24 January 2022 18:29:11
Eccentricity: 0.0013255
inclination: 99.1660°
perigee height: 841 km
apogee height: 860 km
right ascension of ascending node: 55.7640°
argument of perigee: 229.1039°
revolutions per day: 14.12524380
mean anomaly at epoch: 130.8984°
orbit number at epoch: 66816

The dashed part of the orbit path shows where the satellite is in the earth's shadow,  

DLR